Location: ???????
(55.5931°N, 39.3286°E)
Time: 06:18:43
(UTC+00:00)

Cosmos 2322 Rocket - Pass Details

Date: 14 April 2024
Orbit: 833 x 849 km, 71.0° (Epoch: 22 May)

Event Time Altitude Azimuth Distance (km) Brightness Sun altitude
Exits shadow 00:19:32 17° 260° (W) 1,993 3.7 -15.3°
Maximum altitude 00:23:21 38° 320° (NW) 1,266 3.1 -14.9°
Drops below altitude 10° 00:28:35 10° 28° (NNE) 2,456 5.8 -14.4°
Sets 00:31:13 0° 37° (NE) 3,393 7.1 -14.1°
